Change the Weather History Date:

Saturday, January 25, 2014

  Actual Average Record
Temperature  
Mean Temperature 44 °F 31 °F  
Max Temperature 62 °F 47 °F 70 °F (1890)
Min Temperature 25 °F 14 °F -12 °F (1940)
Degree Days  
Heating Degree Days 21 34  
Month to date heating degree days 818 864  
Since 1 July heating degree days 3056 3227  
Cooling Degree Days 0 0  
Month to date cooling degree days 0 0  
Year to date cooling degree days 0 0  
Moisture  
Dew Point 16 °F    
Average Humidity 40    
Maximum Humidity 63    
Minimum Humidity 16    
Precipitation  
Precipitation 0.00 in 0.01 in 0.33 in (1932)
Month to date precipitation 0.08 0.28  
Year to date precipitation 0.08 0.28  
Snow  
Snow 0.00 in 0.30 in 4.20 in (2004)
Month to date snowfall 2.7 5.3  
Since 1 July snowfall 8.6 16.8  
Snow Depth 0.00 in    
Sea Level Pressure  
Sea Level Pressure 30.03 in    
Wind  
Wind Speed 6 mph (West)    
Max Wind Speed 16 mph    
Max Gust Speed 20 mph    
Visibility 10 miles    
Events      
T = Trace of Precipitation, MM = Missing Value Source: NWS Daily Summary

Daily Weather History Graph

Daily Weather History Graph

Search for Another Location

Airport or City:

Trip Planner

Search our weather history database for the weather conditions in past years. The results will help you decide how hot, cold, wet, or windy it might be!

Date:

Astronomy

Jan. 25, 2014 Rise Set
Actual Time 7:08 AM MST 5:12 PM MST
Civil Twilight 6:40 AM MST 5:41 PM MST
Nautical Twilight 6:08 AM MST 6:13 PM MST
Astronomical Twilight 5:36 AM MST 6:44 PM MST
Moon 1:43 AM MST (1/25) 12:15 PM MST (1/25)
Length of Visible Light 11h 01m
Length of Day
10h 04m
Waning Crescent, 33% of the Moon is Illuminated
Jan 25
Waning Crescent
Jan 30
New
Feb 6
First Quarter
Feb 14
Full
Feb 22
Last Quarter

Hourly Weather History & Observations

Time (MST) Temp. Windchill Dew Point Humidity Pressure Visibility Wind Dir Wind Speed Gust Speed Precip Events Conditions
12:53 AM 37.9 °F 35.5 °F 12.0 °F 35% 30.12 in 10.0 mi WNW 3.5 mph - N/A   Clear
1:53 AM 43.0 °F 35.7 °F 10.9 °F 27% 30.11 in 10.0 mi WNW 15.0 mph - N/A   Clear
2:53 AM 35.1 °F 27.4 °F 12.9 °F 40% 30.12 in 10.0 mi NNW 10.4 mph - N/A   Clear
3:53 AM 30.9 °F 24.3 °F 16.0 °F 54% 30.12 in 10.0 mi Variable 6.9 mph - N/A   Clear
4:53 AM 30.9 °F - 16.0 °F 54% 30.13 in 10.0 mi Calm Calm - N/A   Clear
5:53 AM 27.0 °F 21.6 °F 16.0 °F 63% 30.20 in 10.0 mi WNW 4.6 mph - N/A   Clear
6:53 AM 28.0 °F 19.3 °F 15.1 °F 58% 30.20 in 10.0 mi West 9.2 mph - N/A   Clear
7:53 AM 32.0 °F 28.7 °F 15.1 °F 50% 30.20 in 10.0 mi SSE 3.5 mph - N/A   Clear
8:53 AM 37.9 °F 34.4 °F 18.0 °F 45% 30.19 in 10.0 mi SW 4.6 mph - N/A   Clear
9:53 AM 45.0 °F 41.8 °F 16.0 °F 31% 30.17 in 10.0 mi SSW 5.8 mph - N/A   Clear
12:53 PM 59.0 °F - 14.0 °F 17% 29.99 in 10.0 mi Calm Calm - N/A   Clear
1:53 PM 61.0 °F - 14.0 °F 16% 29.92 in 10.0 mi SE 6.9 mph - N/A   Clear
2:53 PM 61.0 °F - 15.1 °F 17% 29.91 in 10.0 mi SSE 8.1 mph - N/A   Clear
3:53 PM 60.1 °F - 16.0 °F 18% 29.90 in 10.0 mi East 5.8 mph - N/A   Clear
4:53 PM 55.0 °F - 17.1 °F 23% 29.90 in 10.0 mi ENE 4.6 mph - N/A   Clear
5:53 PM 45.0 °F 40.1 °F 19.9 °F 37% 29.94 in 10.0 mi ENE 9.2 mph - N/A   Clear
7:53 PM 39.9 °F 35.8 °F 21.0 °F 47% 29.94 in 10.0 mi West 5.8 mph - N/A   Clear
8:53 PM 39.9 °F 33.4 °F 23.0 °F 51% 29.91 in 10.0 mi North 10.4 mph - N/A   Clear
9:53 PM 32.0 °F 25.6 °F 19.0 °F 59% 29.91 in 10.0 mi WSW 6.9 mph - N/A   Clear
10:53 PM 28.9 °F 22.8 °F 18.0 °F 64% 29.91 in 10.0 mi West 5.8 mph - N/A   Clear
11:53 PM 28.0 °F - 17.1 °F 63% 29.90 in 10.0 mi Calm Calm - N/A   Clear